Theta_e
335 335 335 335 335 335 334 333 333 333 332 332 331 331 330 331 331 331 331 321 323 327 331 334 334 334 335 334 337 334 333 332 333 333 332 331 331 330 330 330 330 330 330
336 336 336 336 336 336 335 335 334 333 333 333 332 332 331 331 331 332 331 331 324 327 329 333 334 336 336 335 334 333 332 332 333 332 330 329 328 328 327 328 328 328 327
337 337 337 337 337 338 336 336 335 335 333 333 332 332 332 332 332 331 331 332 331 324 325 329 332 333 335 335 334 332 331 331 331 330 328 327 327 326 326 327 326 325 325
338 337 337 337 338 336 335 334 334 331 331 330 328 329 331 332 330 329 329 330 331 330 328 327 328 330 332 334 333 331 330 330 330 329 328 326 325 326 326 326 324 323 322
336 336 336 334 334 332 333 331 330 330 329 329 328 328 327 326 327 326 326 328 329 330 330 327 322 321 326 330 332 331 331 331 329 327 326 325 325 324 325 324 323 321 320
330 331 330 329 330 330 330 329 327 328 326 326 323 321 323 324 325 325 326 327 328 328 329 328 328 326 321 325 329 330 330 330 328 326 326 325 323 322 323 321 320 320 318
318 321 322 322 323 323 322 322 322 321 321 322 319 319 320 321 322 323 325 325 326 326 326 325 324 324 323 323 326 328 329 328 327 325 325 323 321 320 320 319 319 319 316
316 316 317 317 318 318 319 319 319 318 319 320 316 313 311 314 319 321 321 322 323 324 323 323 323 322 322 322 323 323 327 327 327 325 324 322 320 320 319 318 319 318 315
312 312 313 314 315 316 316 316 316 315 312 316 317 312 308 306 311 316 318 319 320 320 321 321 320 319 318 318 318 319 320 323 325 325 323 321 320 319 318 318 318 317 314
307 307 308 309 309 310 310 311 312 313 313 310 313 314 313 312 307 305 314 315 316 315 318 319 318 317 317 316 313 309 311 314 315 319 322 320 320 319 318 318 317 316 314
303 302 303 304 304 306 306 307 307 308 309 309 309 309 309 310 311 309 304 308 312 311 315 313 315 317 316 315 314 311 307 309 311 312 318 319 319 318 318 317 316 316 314
298 297 299 299 299 300 300 301 302 303 303 304 304 305 304 303 304 303 303 304 305 309 314 312 311 313 315 314 309 303 305 307 309 311 313 316 316 316 316 316 316 315 314
293 293 294 295 295 295 296 297 298 298 298 298 299 299 301 301 303 303 302 300 301 305 306 311 311 311 312 312 309 300 300 304 307 309 310 313 313 314 315 315 314 314 314
291 292 292 293 293 293 293 294 295 295 295 295 295 296 297 298 299 299 298 298 295 299 302 303 309 307 308 311 307 299 304 301 303 307 309 311 311 311 312 314 313 314 313
289 290 291 291 291 291 291 291 291 292 292 292 293 293 293 294 296 296 297 298 296 291 294 298 302 308 307 304 303 305 304 301 301 304 306 309 309 309 310 311 312 313 313
288 288 288 288 288 289 289 289 289 290 289 290 290 290 290 292 293 294 295 295 295 293 290 296 298 302 305 301 301 301 302 296 298 300 302 306 307 307 307 309 310 311 312
286 286 286 286 286 286 287 287 287 288 287 287 288 288 288 289 289 290 292 292 292 293 289 293 296 298 299 300 301 301 298 298 299 296 299 302 305 304 304 306 307 309 310
285 284 285 285 285 285 285 286 285 286 285 285 286 286 286 287 288 289 288 288 289 290 289 286 291 292 294 296 295 297 297 294 295 295 297 299 302 303 302 303 304 305 306
283 284 284 283 283 283 284 285 285 285 285 285 285 285 285 285 284 285 285 285 285 286 286 285 285 288 289 290 291 292 292 292 292 292 294 297 298 301 301 301 302 302 302
282 282 282 282 282 283 284 284 284 284 284 284 285 284 284 284 283 284 284 284 284 282 283 283 283 284 286 288 289 286 286 289 288 291 290 291 294 297 300 299 300 299 299
281 281 281 281 281 282 283 283 283 283 282 282 283 283 283 283 283 283 283 282 283 282 282 282 282 283 283 284 284 286 286 287 289 290 289 288 288 292 296 297 296 296 298
279 280 280 280 280 280 282 283 283 282 281 281 280 281 282 282 282 282 282 283 283 281 280 280 281 280 281 283 285 284 284 284 284 291 286 286 289 289 292 294 296 296 297
278 278 279 279 279 280 281 282 282 281 280 280 279 280 280 280 281 280 281 282 282 282 283 281 279 280 280 282 283 282 283 284 283 288 287 284 288 286 290 290 295 296 296
277 277 278 278 278 279 280 280 281 280 279 279 279 279 279 278 279 279 279 279 280 280 280 281 281 281 282 283 283 283 283 284 286 286 288 282 287 285 288 288 292 294 294
276 276 277 277 277 278 279 279 279 278 277 277 278 278 277 277 278 279 277 277 277 278 281 281 282 284 286 286 286 284 281 281 281 283 288 284 285 285 285 285 286 293 293
275 275 275 276 277 276 277 278 278 277 276 276 276 276 277 277 278 278 276 275 274 275 276 277 278 280 282 283 285 284 283 280 281 280 286 280 283 282 277 279 283 286 288
Wind_Speed
3 4 4 4 5 4 4 5 6 6 7 8 8 9 9 10 10 7 6 7 9 14 17 19 19 19 20 20 18 14 11 13 11 11 9 7 6 4 4 2 6 7 7
4 4 5 5 5 5 5 6 6 7 8 8 10 10 11 11 11 11 9 9 10 13 17 18 18 21 21 20 19 15 13 14 12 10 6 4 3 3 3 4 5 6 7
5 6 6 6 6 5 7 7 7 7 8 8 10 10 9 12 10 12 11 10 9 11 14 17 18 19 19 19 17 13 11 11 8 9 7 5 6 5 5 6 5 6 7
6 6 6 6 6 6 6 6 6 7 7 7 8 7 8 10 12 12 11 10 9 9 7 12 13 15 17 17 15 11 8 9 10 12 11 8 5 5 4 7 6 5 7
6 6 6 6 6 5 5 5 6 7 7 7 9 9 10 10 11 10 13 12 11 9 8 7 5 10 13 15 16 12 11 12 12 11 9 9 8 6 8 8 8 7 6
6 5 4 5 5 5 5 5 7 7 7 8 8 9 10 10 10 10 10 9 9 10 9 9 8 7 8 11 14 14 11 10 12 12 13 14 13 12 11 9 10 9 8
6 6 5 5 6 5 6 6 6 8 7 6 8 8 9 10 8 9 7 7 9 8 8 9 7 7 7 11 12 13 14 14 14 14 15 14 12 10 10 11 11 11 8
9 7 8 6 7 5 6 7 7 6 7 6 6 8 6 10 1 6 9 10 11 8 8 10 11 10 8 7 8 9 14 15 16 16 16 15 13 14 13 12 13 13 11
11 10 10 8 7 6 5 7 7 8 6 8 8 4 6 5 11 8 10 10 10 8 8 9 10 11 10 9 9 12 15 14 19 18 18 16 17 17 15 15 15 15 14
13 13 12 11 10 7 9 8 7 6 6 7 6 3 7 8 5 6 2 5 9 9 11 9 10 11 12 10 12 11 10 12 13 14 20 20 20 18 20 19 18 17 16
12 14 13 13 12 9 10 9 8 8 6 6 6 8 10 8 9 7 10 6 6 7 10 8 9 10 12 11 10 11 14 17 16 16 17 20 22 23 20 19 19 20 19
8 12 11 10 10 9 10 10 9 10 8 7 6 7 7 6 9 9 12 15 15 11 10 8 8 8 9 10 10 13 15 19 21 18 16 19 21 21 22 22 22 22 20
8 10 11 11 8 9 9 10 9 9 9 8 8 7 6 7 7 8 9 11 13 12 10 9 8 9 9 10 12 16 18 21 23 21 20 21 21 21 23 23 24 24 24
7 9 9 9 11 11 10 9 7 8 9 9 11 9 7 7 8 8 9 10 14 11 12 16 8 6 8 10 11 10 13 18 25 24 22 22 23 22 22 24 25 24 24
7 10 12 10 10 10 11 11 8 9 9 9 9 10 8 8 8 8 9 9 10 13 18 9 11 7 7 6 9 11 13 18 23 26 25 25 26 25 25 26 26 26 26
10 10 10 10 10 11 12 12 10 11 12 9 8 12 11 8 9 8 8 9 9 10 15 11 12 14 12 7 10 13 15 14 20 23 27 26 27 27 27 27 28 28 28
9 9 10 11 12 12 12 12 13 14 14 13 13 14 15 15 10 10 9 9 10 10 13 22 14 14 17 17 13 12 12 14 13 22 28 30 31 30 29 28 29 30 29
9 10 11 11 11 12 12 13 13 12 13 14 13 13 13 11 13 12 10 13 12 12 12 23 16 15 17 18 17 15 13 10 12 18 25 31 32 31 29 29 30 31 30
10 10 10 11 11 11 10 12 12 12 12 11 12 12 13 13 13 11 12 11 11 10 10 13 18 14 16 14 16 14 13 13 12 19 26 28 31 30 30 29 30 31 29
9 10 9 9 9 8 10 12 12 12 11 11 12 12 13 13 15 15 13 14 11 13 11 12 15 17 16 15 16 12 14 11 12 12 17 20 22 31 31 31 30 29 28
6 6 7 8 9 7 9 13 13 13 12 12 12 12 12 13 16 19 13 14 15 12 12 13 15 16 15 14 15 12 16 14 15 12 12 11 12 15 17 29 26 29 27
7 7 8 9 9 6 16 18 16 12 12 12 13 14 15 15 19 25 25 26 23 18 18 15 16 18 22 17 15 15 15 15 18 9 10 15 12 14 14 15 29 32 30
8 7 7 8 9 9 18 19 21 11 13 14 16 15 15 12 18 18 23 28 25 27 27 22 23 21 24 19 20 22 19 18 18 14 13 15 11 14 13 13 28 32 32
7 7 8 9 9 8 17 20 23 14 14 16 17 18 18 19 18 21 23 23 21 20 21 17 21 23 22 22 20 20 23 22 18 17 15 15 10 14 12 11 24 31 32
7 8 8 8 9 10 17 21 21 15 16 17 16 18 19 19 25 34 24 25 26 22 23 33 36 38 37 37 33 19 18 18 18 16 14 14 13 11 10 9 10 28 31
7 7 8 8 8 11 17 22 21 12 15 13 16 17 20 22 33 35 25 22 23 23 24 25 24 26 29 25 31 22 17 18 16 18 11 10 12 7 3 3 7 10 14
Wind_Direction
251 267 275 280 286 287 283 290 292 293 291 286 281 280 279 283 286 283 282 256 247 268 273 276 276 279 284 284 289 291 281 275 255 245 232 217 205 176 136 96 116 103 93
276 284 289 287 288 292 293 288 295 295 293 293 291 285 284 285 282 282 280 280 227 248 265 271 275 279 280 282 282 286 287 280 240 229 211 164 121 108 108 132 117 98 94
279 288 289 290 296 303 293 283 282 283 284 284 282 284 287 286 282 282 278 277 279 231 241 266 265 269 277 284 279 283 281 270 222 185 181 205 210 197 198 190 147 121 113
287 282 284 287 302 304 300 299 294 291 291 291 292 293 282 286 286 280 277 273 275 281 251 237 262 276 284 287 289 273 249 224 180 168 165 175 231 205 198 176 154 154 142
301 296 305 311 315 298 305 308 302 292 301 304 305 301 297 291 285 282 276 272 271 272 278 277 257 281 280 287 293 249 232 196 179 178 189 193 192 191 185 183 171 177 144
2 350 343 321 325 319 317 318 309 310 305 305 305 300 295 287 286 281 282 284 279 279 277 278 279 270 257 277 284 261 232 211 204 201 201 200 195 201 202 204 199 177 163
14 11 4 352 348 344 340 335 327 321 316 324 299 301 305 290 295 296 298 290 288 283 280 273 276 275 272 265 273 262 235 238 223 212 208 206 207 208 213 218 217 186 162
28 23 18 9 5 349 353 353 351 333 316 340 320 307 314 311 291 324 299 297 291 289 282 276 275 271 266 262 257 263 269 251 242 226 209 211 214 203 207 217 208 188 176
32 28 26 17 12 9 5 359 358 351 330 320 331 307 313 308 322 300 313 303 296 295 289 284 278 275 263 252 255 251 248 257 255 234 217 216 212 210 211 207 212 199 186
28 25 20 18 16 13 9 2 359 348 334 325 332 336 309 304 309 303 270 301 300 294 285 278 272 266 255 249 242 249 253 239 254 263 225 219 219 213 213 212 215 201 194
34 27 23 19 16 11 3 4 1 359 348 331 330 324 318 312 291 304 303 294 263 256 269 261 252 255 257 249 248 246 228 239 243 253 239 217 220 217 218 219 215 216 197
23 23 21 23 19 14 8 358 0 8 6 352 340 327 318 313 313 311 308 308 301 290 286 259 251 254 256 249 247 245 232 230 240 242 248 224 223 223 216 218 218 215 200
27 13 9 9 9 4 4 353 359 2 5 355 349 333 320 313 308 299 293 296 297 304 291 273 257 253 255 255 250 232 235 237 237 236 235 231 221 222 219 218 220 216 203
16 4 6 7 10 3 355 352 359 1 359 350 344 342 331 321 322 311 306 306 304 291 290 288 266 238 246 253 256 258 254 239 239 235 239 228 222 222 225 219 218 219 204
6 4 10 2 9 8 1 358 4 4 357 351 343 343 333 324 321 314 313 307 297 304 300 304 295 278 254 262 256 262 253 251 236 237 230 228 223 223 222 223 219 219 210
14 8 1 2 8 9 9 6 3 3 358 358 355 347 342 336 327 324 315 304 293 290 288 303 301 308 305 274 274 265 267 258 252 235 232 231 229 223 222 224 221 215 217
7 4 4 7 8 7 10 9 3 359 356 351 351 348 338 339 335 323 322 316 309 300 287 293 301 310 308 303 287 273 273 265 260 241 237 232 228 224 220 222 221 220 211
9 7 7 7 6 8 8 6 359 353 351 347 345 340 338 335 326 328 329 320 309 306 296 294 307 307 304 307 304 294 287 267 263 255 244 238 236 227 224 221 217 218 211
10 7 9 6 2 2 6 3 356 348 342 341 337 336 331 329 331 321 323 318 313 307 304 297 299 300 297 298 295 284 277 270 263 265 259 250 240 235 223 225 224 214 211
3 4 5 1 359 358 6 357 350 344 341 339 335 331 327 321 319 320 320 315 313 309 298 293 293 295 295 298 291 292 280 268 265 261 254 251 249 242 229 219 221 222 211
4 353 357 1 4 10 4 356 348 340 342 333 331 325 318 317 311 326 316 322 318 313 305 299 292 291 291 292 287 290 284 280 266 256 253 244 241 242 233 222 220 214 216
1 357 5 4 1 355 356 354 352 336 337 332 328 327 327 329 332 324 325 321 316 313 304 297 290 288 291 291 288 285 284 286 284 236 238 250 234 239 230 222 215 212 208
352 355 0 358 353 357 355 352 348 337 334 334 332 333 331 331 329 322 320 316 310 301 298 295 290 285 287 289 293 289 281 276 272 282 248 250 226 233 227 233 227 214 205
345 348 357 355 350 344 350 349 346 340 337 337 334 333 329 328 322 326 320 313 312 305 298 292 286 285 282 286 279 280 283 280 275 267 251 255 230 236 221 219 221 217 204
344 351 345 343 342 338 349 349 351 345 338 336 329 328 326 321 327 324 319 317 311 307 303 302 297 293 290 288 280 276 271 275 272 271 253 230 234 232 221 214 209 216 204
335 327 329 340 333 336 351 352 351 339 326 326 325 323 324 326 323 325 321 315 312 313 312 309 303 296 290 281 279 269 270 269 270 272 248 222 231 191 201 244 204 205 199